Location: Équennes
(49.7375°N, 1.9622°E)
Time: 00:44:33
(UTC+00:00)

Cosmos 1763 Rocket - Pass Details

Date: 28 January 2023
Orbit: 733 x 778 km, 74.0° (Epoch: 30 March)

Event Time Altitude Azimuth Distance (km) Brightness Sun altitude
Rises 18:57:34 0° 336° (NNW) 3,242 7.0 -22.1°
Reaches altitude 10° 18:59:58 10° 338° (NNW) 2,305 6.2 -22.5°
Maximum altitude 19:05:12 80° 66° (ENE) 772 3.3 -23.4°
Enters shadow 19:06:35 50° 143° (SE) 958 3.7 -23.6°
